Year,Month,Day,Hour,Minute,Value (Times are PST for temperature in C)
2015,08,19,00,00,14.30
2015,08,19,00,01,14.30
2015,08,19,00,02,14.30
2015,08,19,00,03,14.30
2015,08,19,00,04,14.20
2015,08,19,00,05,14.20
2015,08,19,00,06,14.20
2015,08,19,00,07,14.20
2015,08,19,00,08,14.20
2015,08,19,00,09,14.20
2015,08,19,00,10,14.20
2015,08,19,00,11,14.20
2015,08,19,00,12,14.20
2015,08,19,00,13,14.20
2015,08,19,00,14,14.20
2015,08,19,00,15,14.20
2015,08,19,00,16,14.20
2015,08,19,00,17,14.20
2015,08,19,00,18,14.20
2015,08,19,00,19,14.20
2015,08,19,00,20,14.20
2015,08,19,00,21,14.20
2015,08,19,00,22,14.20
2015,08,19,00,23,14.20
2015,08,19,00,24,14.20
2015,08,19,00,25,14.20
2015,08,19,00,26,14.20
2015,08,19,00,27,14.20
2015,08,19,00,28,14.20
2015,08,19,00,29,14.20
2015,08,19,00,30,14.20
2015,08,19,00,31,14.20
2015,08,19,00,32,14.10
2015,08,19,00,33,14.10
2015,08,19,00,34,14.10
2015,08,19,00,35,14.10
2015,08,19,00,36,14.10
2015,08,19,00,37,14.10
2015,08,19,00,38,14.10
2015,08,19,00,39,14.10
2015,08,19,00,40,14.00
2015,08,19,00,41,14.00
2015,08,19,00,42,14.00
2015,08,19,00,43,14.00
2015,08,19,00,44,14.00
2015,08,19,00,45,14.00
2015,08,19,00,46,14.00
2015,08,19,00,47,14.10
2015,08,19,00,48,14.10
2015,08,19,00,49,14.10
2015,08,19,00,50,14.10
2015,08,19,00,51,14.10
2015,08,19,00,52,14.10
2015,08,19,00,53,14.10
2015,08,19,00,54,14.10
2015,08,19,00,55,14.10
2015,08,19,00,56,14.00
2015,08,19,00,57,14.00
2015,08,19,00,58,14.00
2015,08,19,00,59,14.00
2015,08,19,01,00,14.00
2015,08,19,01,01,14.00
2015,08,19,01,02,13.90
2015,08,19,01,03,13.90
2015,08,19,01,04,13.90
2015,08,19,01,05,13.90
2015,08,19,01,06,13.90
2015,08,19,01,07,13.90
2015,08,19,01,08,13.90
2015,08,19,01,09,13.80
2015,08,19,01,10,13.80
2015,08,19,01,11,13.80
2015,08,19,01,12,13.80
2015,08,19,01,13,13.80
2015,08,19,01,14,13.80
2015,08,19,01,15,13.80
2015,08,19,01,16,13.80
2015,08,19,01,17,13.80
2015,08,19,01,18,13.80
2015,08,19,01,19,13.80
2015,08,19,01,20,13.80
2015,08,19,01,21,13.80
2015,08,19,01,22,13.80
2015,08,19,01,23,13.80
2015,08,19,01,24,13.70
2015,08,19,01,25,13.70
2015,08,19,01,26,13.70
2015,08,19,01,27,13.70
2015,08,19,01,28,13.70
2015,08,19,01,29,13.70
2015,08,19,01,30,13.70
2015,08,19,01,31,13.70
2015,08,19,01,32,13.70
2015,08,19,01,33,13.70
2015,08,19,01,34,13.70
2015,08,19,01,35,13.70
2015,08,19,01,36,13.70
2015,08,19,01,37,13.70
2015,08,19,01,38,13.70
2015,08,19,01,39,13.70
2015,08,19,01,40,13.70
2015,08,19,01,41,13.70
2015,08,19,01,42,13.70
2015,08,19,01,43,13.70
2015,08,19,01,44,13.70
2015,08,19,01,45,13.70
2015,08,19,01,46,13.70
2015,08,19,01,47,13.70
2015,08,19,01,48,13.70
2015,08,19,01,49,13.70
2015,08,19,01,50,13.70
2015,08,19,01,51,13.70
2015,08,19,01,52,13.60
2015,08,19,01,53,13.60
2015,08,19,01,54,13.60
2015,08,19,01,55,13.60
2015,08,19,01,56,13.50
2015,08,19,01,57,13.50
2015,08,19,01,58,13.50
2015,08,19,01,59,13.50
2015,08,19,02,00,13.50
2015,08,19,02,01,13.50
2015,08,19,02,02,13.50
2015,08,19,02,03,13.60
2015,08,19,02,04,13.60
2015,08,19,02,05,13.60
2015,08,19,02,06,13.50
2015,08,19,02,07,13.50
2015,08,19,02,08,13.40
2015,08,19,02,09,13.40
2015,08,19,02,10,13.40
2015,08,19,02,11,13.40
2015,08,19,02,12,13.30
2015,08,19,02,13,13.30
2015,08,19,02,14,13.30
2015,08,19,02,15,13.30
2015,08,19,02,16,13.20
2015,08,19,02,17,13.20
2015,08,19,02,18,13.20
2015,08,19,02,19,13.20
2015,08,19,02,20,13.20
2015,08,19,02,21,13.20
2015,08,19,02,22,13.20
2015,08,19,02,23,13.20
2015,08,19,02,24,13.20
2015,08,19,02,25,13.30
2015,08,19,02,26,13.30
2015,08,19,02,27,13.30
2015,08,19,02,28,13.30
2015,08,19,02,29,13.30
2015,08,19,02,30,13.30
2015,08,19,02,31,13.30
2015,08,19,02,32,13.30
2015,08,19,02,33,13.30
2015,08,19,02,34,13.20
2015,08,19,02,35,13.20
2015,08,19,02,36,13.20
2015,08,19,02,37,13.20
2015,08,19,02,38,13.20
2015,08,19,02,39,13.20
2015,08,19,02,40,13.20
2015,08,19,02,41,13.20
2015,08,19,02,42,13.20
2015,08,19,02,43,13.20
2015,08,19,02,44,13.30
2015,08,19,02,45,13.30
2015,08,19,02,46,13.30
2015,08,19,02,47,13.30
2015,08,19,02,48,13.30
2015,08,19,02,49,13.30
2015,08,19,02,50,13.30
2015,08,19,02,51,13.30
2015,08,19,02,52,13.30
2015,08,19,02,53,13.30
2015,08,19,02,54,13.30
2015,08,19,02,55,13.30
2015,08,19,02,56,13.30
2015,08,19,02,57,13.30
2015,08,19,02,58,13.30
2015,08,19,02,59,13.30
2015,08,19,03,00,13.30
2015,08,19,03,01,13.30
2015,08,19,03,02,13.30
2015,08,19,03,03,13.30
2015,08,19,03,04,13.30
2015,08,19,03,05,13.30
2015,08,19,03,06,13.30
2015,08,19,03,07,13.30
2015,08,19,03,08,13.30
2015,08,19,03,09,13.30
2015,08,19,03,10,13.30
2015,08,19,03,11,13.30
2015,08,19,03,12,13.30
2015,08,19,03,13,13.30
2015,08,19,03,14,13.20
2015,08,19,03,15,13.20
2015,08,19,03,16,13.20
2015,08,19,03,17,13.20
2015,08,19,03,18,13.20
2015,08,19,03,19,13.20
2015,08,19,03,20,13.20
2015,08,19,03,21,13.30
2015,08,19,03,22,13.30
2015,08,19,03,23,13.30
2015,08,19,03,24,13.40
2015,08,19,03,25,13.40
2015,08,19,03,26,13.40
2015,08,19,03,27,13.40
2015,08,19,03,28,13.30
2015,08,19,03,29,13.30
2015,08,19,03,30,13.30
2015,08,19,03,31,13.30
2015,08,19,03,32,13.30
2015,08,19,03,33,13.20
2015,08,19,03,34,13.20
2015,08,19,03,35,13.20
2015,08,19,03,36,13.20
2015,08,19,03,37,13.20
2015,08,19,03,38,13.20
2015,08,19,03,39,13.20
2015,08,19,03,40,13.20
2015,08,19,03,41,13.20
2015,08,19,03,42,13.20
2015,08,19,03,43,13.20
2015,08,19,03,44,13.20
2015,08,19,03,45,13.20
2015,08,19,03,46,13.20
2015,08,19,03,47,13.20
2015,08,19,03,48,13.20
2015,08,19,03,49,13.20
2015,08,19,03,50,13.20
2015,08,19,03,51,13.20
2015,08,19,03,52,13.20
2015,08,19,03,53,13.20
2015,08,19,03,54,13.20
2015,08,19,03,55,13.20
2015,08,19,03,56,13.20
2015,08,19,03,57,13.20
2015,08,19,03,58,13.20
2015,08,19,03,59,13.20
2015,08,19,04,00,13.20
2015,08,19,04,01,13.20
2015,08,19,04,02,13.20
2015,08,19,04,03,13.20
2015,08,19,04,04,13.20
2015,08,19,04,05,13.20
2015,08,19,04,06,13.20
2015,08,19,04,07,13.20
2015,08,19,05,02,13.50
2015,08,19,05,03,13.50
2015,08,19,05,04,13.50
2015,08,19,05,05,13.40
2015,08,19,05,06,13.40
2015,08,19,05,07,13.40
2015,08,19,05,08,13.50
2015,08,19,05,09,13.50
2015,08,19,05,10,13.60
2015,08,19,05,11,13.60
2015,08,19,05,12,13.60
2015,08,19,05,13,13.60
2015,08,19,05,14,13.60
2015,08,19,05,15,13.60
2015,08,19,05,16,13.60
2015,08,19,05,17,13.60
2015,08,19,05,18,13.60
2015,08,19,05,19,13.60
2015,08,19,05,20,13.50
2015,08,19,05,21,13.50
2015,08,19,05,22,13.50
2015,08,19,05,23,13.50
2015,08,19,05,24,13.50
2015,08,19,05,25,13.50
2015,08,19,05,26,13.50
2015,08,19,05,27,13.50
2015,08,19,05,28,13.50
2015,08,19,05,29,13.50
2015,08,19,05,30,13.50
2015,08,19,05,31,13.50
2015,08,19,05,32,13.50
2015,08,19,05,33,13.50
2015,08,19,05,34,13.50
2015,08,19,05,35,13.50
2015,08,19,05,36,13.50
2015,08,19,05,37,13.50
2015,08,19,05,38,13.50
2015,08,19,05,39,13.50
2015,08,19,05,40,13.50
2015,08,19,05,41,13.50
2015,08,19,05,42,13.50
2015,08,19,05,43,13.50
2015,08,19,05,44,13.50
2015,08,19,05,45,13.60
2015,08,19,05,46,13.60
2015,08,19,05,47,13.60
2015,08,19,05,48,13.60
2015,08,19,05,49,13.60
2015,08,19,05,50,13.60
2015,08,19,05,51,13.50
2015,08,19,05,52,13.50
2015,08,19,05,53,13.60
2015,08,19,05,54,13.60
2015,08,19,05,55,13.60
2015,08,19,05,56,13.60
2015,08,19,05,57,13.60
2015,08,19,05,58,13.60
2015,08,19,05,59,13.60
2015,08,19,06,00,13.60
2015,08,19,06,01,13.60
2015,08,19,06,02,13.60
2015,08,19,06,03,13.60
2015,08,19,06,04,13.60
2015,08,19,06,05,13.60
2015,08,19,06,06,13.60
2015,08,19,06,07,13.60
2015,08,19,06,08,13.60
2015,08,19,06,09,13.60
2015,08,19,06,10,13.70
2015,08,19,06,11,13.70
2015,08,19,06,12,13.70
2015,08,19,06,13,13.70
2015,08,19,06,14,13.80
2015,08,19,06,15,13.80
2015,08,19,06,16,13.80
2015,08,19,06,17,13.80
2015,08,19,06,18,13.80
2015,08,19,06,19,13.80
2015,08,19,06,20,13.80
2015,08,19,06,21,13.80
2015,08,19,06,22,13.80
2015,08,19,06,23,13.80
2015,08,19,06,24,13.70
2015,08,19,06,25,13.70
2015,08,19,06,26,13.70
2015,08,19,06,27,13.70
2015,08,19,06,28,13.70
2015,08,19,06,29,13.70
2015,08,19,06,30,13.70
2015,08,19,06,31,13.70
2015,08,19,06,32,13.70
2015,08,19,06,33,13.70
2015,08,19,06,34,13.70
2015,08,19,06,35,13.70
2015,08,19,06,36,13.70
2015,08,19,06,37,13.70
2015,08,19,06,38,13.70
2015,08,19,06,39,13.70
2015,08,19,06,40,13.70
2015,08,19,06,41,13.70
2015,08,19,06,42,13.70
2015,08,19,06,43,13.70
2015,08,19,06,44,13.70
2015,08,19,06,45,13.70
2015,08,19,06,46,13.70
2015,08,19,06,47,13.70
2015,08,19,06,48,13.70
2015,08,19,06,49,13.70
2015,08,19,06,50,13.70
2015,08,19,06,51,13.70
2015,08,19,06,52,13.70
2015,08,19,06,53,13.70
2015,08,19,06,54,13.70
2015,08,19,06,55,13.70
2015,08,19,06,56,13.70
2015,08,19,06,57,13.70
2015,08,19,06,58,13.70
2015,08,19,06,59,13.70
2015,08,19,07,00,13.70
2015,08,19,07,01,13.70
2015,08,19,07,02,13.70
2015,08,19,07,03,13.70
2015,08,19,07,04,13.70
2015,08,19,07,05,13.70
2015,08,19,07,06,13.70
2015,08,19,07,07,13.70
2015,08,19,07,08,13.70
2015,08,19,07,09,13.70
2015,08,19,07,10,13.70
2015,08,19,07,11,13.70
2015,08,19,07,12,13.70
2015,08,19,07,13,13.70
2015,08,19,07,14,13.70
2015,08,19,07,15,13.70
2015,08,19,07,16,13.70
2015,08,19,07,17,13.70
2015,08,19,07,18,13.70
2015,08,19,07,19,13.80
2015,08,19,07,20,13.80
2015,08,19,07,21,13.80
2015,08,19,07,22,13.80
2015,08,19,07,23,13.80
2015,08,19,07,24,13.80
2015,08,19,07,25,13.80
2015,08,19,07,26,13.80
2015,08,19,07,27,13.90
2015,08,19,07,28,13.90
2015,08,19,07,29,13.90
2015,08,19,07,30,13.90
2015,08,19,07,31,13.90
2015,08,19,07,32,13.90
2015,08,19,07,33,13.90
2015,08,19,07,34,13.90
2015,08,19,07,35,13.90
2015,08,19,07,36,13.90
2015,08,19,07,37,13.90
2015,08,19,07,38,13.90
2015,08,19,07,39,13.90
2015,08,19,07,40,13.90
2015,08,19,07,41,13.90
2015,08,19,07,42,14.00
2015,08,19,07,43,14.00
2015,08,19,07,44,14.10
2015,08,19,07,45,14.10
2015,08,19,07,46,14.10
2015,08,19,07,47,14.10
2015,08,19,07,48,14.20
2015,08,19,07,49,14.20
2015,08,19,07,50,14.20
2015,08,19,07,51,14.20
2015,08,19,07,52,14.20
2015,08,19,07,53,14.20
2015,08,19,07,54,14.20
2015,08,19,07,55,14.20
2015,08,19,07,56,14.20
2015,08,19,07,57,14.20
2015,08,19,07,58,14.20
2015,08,19,07,59,14.20
2015,08,19,08,00,14.20
2015,08,19,08,01,14.20
2015,08,19,08,02,14.20
2015,08,19,08,03,14.30
2015,08,19,08,04,14.30
2015,08,19,08,05,14.40
2015,08,19,08,06,14.40
2015,08,19,08,07,14.40
2015,08,19,08,08,14.40
2015,08,19,08,09,14.50
2015,08,19,08,10,14.50
2015,08,19,08,11,14.50
2015,08,19,08,12,14.50
2015,08,19,08,13,14.50
2015,08,19,08,14,14.60
2015,08,19,08,15,14.60
2015,08,19,08,16,14.70
2015,08,19,08,17,14.70
2015,08,19,08,18,14.80
2015,08,19,08,19,14.80
2015,08,19,08,20,14.90
2015,08,19,08,21,15.00
2015,08,19,08,22,15.10
2015,08,19,08,23,15.20
2015,08,19,08,24,15.30
2015,08,19,08,25,15.30
2015,08,19,08,26,15.40
2015,08,19,08,27,15.50
2015,08,19,08,28,15.60
2015,08,19,08,29,15.70
2015,08,19,08,30,15.80
2015,08,19,08,31,15.80
2015,08,19,08,32,15.90
2015,08,19,08,33,16.00
2015,08,19,08,34,16.00
2015,08,19,08,35,16.00
2015,08,19,08,36,16.10
2015,08,19,08,37,16.20
2015,08,19,08,38,16.20
2015,08,19,08,39,16.30
2015,08,19,08,40,16.30
2015,08,19,08,41,16.30
2015,08,19,08,42,16.30
2015,08,19,08,43,16.30
2015,08,19,08,44,16.30
2015,08,19,08,45,16.30
2015,08,19,08,46,16.30
2015,08,19,08,47,16.30
2015,08,19,08,48,16.40
2015,08,19,08,49,16.40
2015,08,19,08,50,16.40
2015,08,19,08,51,16.50
2015,08,19,08,52,16.50
2015,08,19,08,53,16.50
2015,08,19,08,54,16.50
2015,08,19,08,55,16.50
2015,08,19,08,56,16.60
2015,08,19,08,57,16.60
2015,08,19,08,58,16.60
2015,08,19,08,59,16.70
2015,08,19,09,00,16.70
2015,08,19,09,01,16.70
2015,08,19,09,02,16.80
2015,08,19,09,03,16.80
2015,08,19,09,04,16.80
2015,08,19,09,05,16.90
2015,08,19,09,06,17.00
2015,08,19,09,07,17.10
2015,08,19,09,08,17.20
2015,08,19,09,09,17.30
2015,08,19,09,10,17.30
2015,08,19,09,11,17.40
2015,08,19,09,12,17.40
2015,08,19,09,13,17.50
2015,08,19,09,14,17.60
2015,08,19,09,15,17.70
2015,08,19,09,16,17.70
2015,08,19,09,17,17.80
2015,08,19,09,18,17.80
2015,08,19,09,19,17.80
2015,08,19,09,20,17.90
2015,08,19,09,21,17.90
2015,08,19,09,22,17.90
2015,08,19,09,23,17.90
2015,08,19,09,24,17.90
2015,08,19,09,25,18.00
2015,08,19,09,26,18.00
2015,08,19,09,27,18.00
2015,08,19,09,28,18.10
2015,08,19,09,29,18.10
2015,08,19,09,30,18.10
2015,08,19,09,31,18.10
2015,08,19,09,32,18.10
2015,08,19,09,33,18.10
2015,08,19,09,34,18.10
2015,08,19,09,35,18.10
2015,08,19,09,36,18.00
2015,08,19,09,37,17.90
2015,08,19,09,38,17.80
2015,08,19,09,39,17.70
2015,08,19,09,40,17.60
2015,08,19,09,41,17.50
2015,08,19,09,42,17.40
2015,08,19,09,43,17.30
2015,08,19,09,44,17.20
2015,08,19,09,45,17.20
2015,08,19,09,46,17.20
2015,08,19,09,47,17.20
2015,08,19,09,48,17.20
2015,08,19,09,49,17.20
2015,08,19,09,50,17.20
2015,08,19,09,51,17.20
2015,08,19,09,52,17.20
2015,08,19,09,53,17.20
2015,08,19,09,54,17.20
2015,08,19,09,55,17.30
2015,08,19,09,56,17.30
2015,08,19,09,57,17.40
2015,08,19,09,58,17.40
2015,08,19,09,59,17.30
2015,08,19,10,00,17.20
2015,08,19,10,01,17.10
2015,08,19,10,02,17.10
2015,08,19,10,03,17.10
2015,08,19,10,04,17.10
2015,08,19,10,05,17.10
2015,08,19,10,06,17.10
2015,08,19,10,07,17.20
2015,08,19,10,08,17.30
2015,08,19,10,09,17.30
2015,08,19,10,10,17.30
2015,08,19,10,11,17.30
2015,08,19,10,12,17.30
2015,08,19,10,13,17.30
2015,08,19,10,14,17.30
2015,08,19,10,15,17.30
2015,08,19,10,16,17.30
2015,08,19,10,17,17.40
2015,08,19,10,18,17.50
2015,08,19,10,19,17.60
2015,08,19,10,20,17.70
2015,08,19,10,21,17.80
2015,08,19,10,22,17.90
2015,08,19,10,23,17.90
2015,08,19,10,24,18.10
2015,08,19,10,25,18.20
2015,08,19,10,26,18.30
2015,08,19,10,27,18.40
2015,08,19,10,28,18.50
2015,08,19,10,29,18.60
2015,08,19,10,30,18.60
2015,08,19,10,31,18.70
2015,08,19,10,32,18.80
2015,08,19,10,33,18.80
2015,08,19,10,34,18.80
2015,08,19,10,35,18.70
2015,08,19,10,36,18.70
2015,08,19,10,37,18.60
2015,08,19,10,38,18.60
2015,08,19,10,39,18.60
2015,08,19,10,40,18.60
2015,08,19,10,41,18.60
2015,08,19,10,42,18.60
2015,08,19,10,43,18.50
2015,08,19,10,44,18.50
2015,08,19,10,45,18.40
2015,08,19,10,46,18.40
2015,08,19,10,47,18.40
2015,08,19,10,48,18.40
2015,08,19,10,49,18.40
2015,08,19,10,50,18.40
2015,08,19,10,51,18.40
2015,08,19,10,52,18.40
2015,08,19,10,53,18.50
2015,08,19,10,54,18.60
2015,08,19,10,55,18.60
2015,08,19,10,56,18.70
2015,08,19,10,57,18.70
2015,08,19,10,58,18.70
2015,08,19,10,59,18.80
2015,08,19,11,00,18.80
2015,08,19,11,01,18.80
2015,08,19,11,02,18.80
2015,08,19,11,03,18.90
2015,08,19,11,04,18.90
2015,08,19,11,05,18.90
2015,08,19,11,06,19.00
2015,08,19,11,07,18.90
2015,08,19,11,08,18.90
2015,08,19,11,09,18.90
2015,08,19,11,10,18.90
2015,08,19,11,11,18.90
2015,08,19,11,12,19.00
2015,08,19,11,13,19.00
2015,08,19,11,14,19.10
2015,08,19,11,15,19.10
2015,08,19,11,16,19.20
2015,08,19,11,17,19.30
2015,08,19,11,18,19.40
2015,08,19,11,19,19.40
2015,08,19,11,20,19.50
2015,08,19,11,21,19.50
2015,08,19,11,22,19.50
2015,08,19,11,23,19.50
2015,08,19,11,24,19.50
2015,08,19,11,25,19.50
2015,08,19,11,26,19.50
2015,08,19,11,27,19.50
2015,08,19,11,28,19.60
2015,08,19,11,29,19.70
2015,08,19,11,30,19.70
2015,08,19,11,31,19.80
2015,08,19,11,32,19.90
2015,08,19,11,33,19.90
2015,08,19,11,34,19.90
2015,08,19,11,35,19.80
2015,08,19,11,36,19.90
2015,08,19,11,37,19.90
2015,08,19,11,38,19.90
2015,08,19,11,39,19.90
2015,08,19,11,40,19.80
2015,08,19,11,41,19.70
2015,08,19,11,42,19.60
2015,08,19,11,43,19.60
2015,08,19,11,44,19.50
2015,08,19,11,45,19.50
2015,08,19,11,46,19.40
2015,08,19,11,47,19.40
2015,08,19,11,48,19.30
2015,08,19,11,49,19.30
2015,08,19,11,50,19.30
2015,08,19,11,51,19.40
2015,08,19,11,52,19.30
2015,08,19,11,53,19.30
2015,08,19,11,54,19.30
2015,08,19,11,55,19.30
2015,08,19,11,56,19.40
2015,08,19,11,57,19.50
2015,08,19,11,58,19.60
2015,08,19,11,59,19.60
2015,08,19,12,00,19.70
2015,08,19,12,01,19.70
2015,08,19,12,02,19.70
2015,08,19,12,03,19.80
2015,08,19,12,04,19.80
2015,08,19,12,05,19.90
2015,08,19,12,06,20.00
2015,08,19,12,07,20.20
2015,08,19,12,08,20.30
2015,08,19,12,09,20.40
2015,08,19,12,10,20.50
2015,08,19,12,11,20.60
2015,08,19,12,12,20.60
2015,08,19,12,13,20.70
2015,08,19,12,14,20.80
2015,08,19,12,15,20.90
2015,08,19,12,16,21.10
2015,08,19,12,17,21.20
2015,08,19,12,18,21.20
2015,08,19,12,19,21.30
2015,08,19,12,20,21.20
2015,08,19,12,21,21.20
2015,08,19,12,22,21.10
2015,08,19,12,23,21.00
2015,08,19,12,24,21.00
2015,08,19,12,25,21.00
2015,08,19,12,26,21.00
2015,08,19,12,27,21.00
2015,08,19,12,28,21.10
2015,08,19,12,29,21.10
2015,08,19,12,30,21.10
2015,08,19,12,31,21.20
2015,08,19,12,32,21.30
2015,08,19,12,33,21.30
2015,08,19,12,34,21.30
2015,08,19,12,35,21.20
2015,08,19,12,36,21.10
2015,08,19,12,37,21.10
2015,08,19,12,38,21.10
2015,08,19,12,39,21.10
2015,08,19,12,40,21.20
2015,08,19,12,41,21.30
2015,08,19,12,42,21.30
2015,08,19,12,43,21.40
2015,08,19,12,44,21.50
2015,08,19,12,45,21.60
2015,08,19,12,46,21.70
2015,08,19,12,47,21.80
2015,08,19,12,48,21.90
2015,08,19,12,49,21.90
2015,08,19,12,50,22.00
2015,08,19,12,51,22.10
2015,08,19,12,52,22.20
2015,08,19,12,53,22.20
2015,08,19,12,54,22.30
2015,08,19,12,55,22.30
2015,08,19,12,56,22.30
2015,08,19,12,57,22.30
2015,08,19,12,58,22.20
2015,08,19,12,59,22.20
2015,08,19,13,00,22.10
2015,08,19,13,01,22.10
2015,08,19,13,02,22.10
2015,08,19,13,03,22.10
2015,08,19,13,04,22.10
2015,08,19,13,05,22.20
2015,08,19,13,06,22.30
2015,08,19,13,07,22.30
2015,08,19,13,08,22.20
2015,08,19,13,09,22.20
2015,08,19,13,10,22.10
2015,08,19,13,11,22.10
2015,08,19,13,12,22.10
2015,08,19,13,13,21.90
2015,08,19,13,14,21.80
2015,08,19,13,15,21.80
2015,08,19,13,16,21.80
2015,08,19,13,17,21.80
2015,08,19,13,18,21.80
2015,08,19,13,19,21.80
2015,08,19,13,20,21.80
2015,08,19,13,21,21.90
2015,08,19,13,22,21.90
2015,08,19,13,23,21.90
2015,08,19,13,24,21.90
2015,08,19,13,25,21.90
2015,08,19,13,26,22.00
2015,08,19,13,27,22.00
2015,08,19,13,28,22.10
2015,08,19,13,29,22.10
2015,08,19,13,30,22.10
2015,08,19,13,31,22.10
2015,08,19,13,32,22.10
2015,08,19,13,33,22.10
2015,08,19,13,34,22.10
2015,08,19,13,35,22.10
2015,08,19,13,36,22.20
2015,08,19,13,37,22.20
2015,08,19,13,38,22.20
2015,08,19,13,39,22.30
2015,08,19,13,40,22.40
2015,08,19,13,41,22.50
2015,08,19,13,42,22.60
2015,08,19,13,43,22.70
2015,08,19,13,44,22.70
2015,08,19,13,45,22.80
2015,08,19,13,46,22.90
2015,08,19,13,47,22.90
2015,08,19,13,48,22.90
2015,08,19,13,49,22.80
2015,08,19,13,50,22.80
2015,08,19,13,51,22.80
2015,08,19,13,52,22.70
2015,08,19,13,53,22.60
2015,08,19,13,54,22.60
2015,08,19,13,55,22.70
2015,08,19,13,56,22.70
2015,08,19,13,57,22.70
2015,08,19,13,58,22.70
2015,08,19,13,59,22.80
2015,08,19,14,00,22.80
2015,08,19,14,01,22.60
2015,08,19,14,02,22.40
2015,08,19,14,03,22.30
2015,08,19,14,04,22.20
2015,08,19,14,05,22.10
2015,08,19,14,06,21.90
2015,08,19,14,07,21.90
2015,08,19,14,08,21.90
2015,08,19,14,09,21.90
2015,08,19,14,10,21.90
2015,08,19,14,11,21.90
2015,08,19,14,12,21.90
2015,08,19,14,13,21.90
2015,08,19,14,14,22.00
2015,08,19,14,15,22.00
2015,08,19,14,16,22.10
2015,08,19,14,17,22.20
2015,08,19,14,18,22.20
2015,08,19,14,19,22.10
2015,08,19,14,20,22.10
2015,08,19,14,21,22.10
2015,08,19,14,22,22.00
2015,08,19,14,23,22.00
2015,08,19,14,24,21.90
2015,08,19,14,25,21.90
2015,08,19,14,26,21.90
2015,08,19,14,27,22.00
2015,08,19,14,28,22.00
2015,08,19,14,29,22.10
2015,08,19,14,30,22.10
2015,08,19,14,31,22.20
2015,08,19,14,32,22.30
2015,08,19,14,33,22.40
2015,08,19,14,34,22.60
2015,08,19,14,35,22.70
2015,08,19,14,36,22.70
2015,08,19,14,37,22.70
2015,08,19,14,38,22.70
2015,08,19,14,39,22.80
2015,08,19,14,40,22.70
2015,08,19,14,41,22.70
2015,08,19,14,42,22.60
2015,08,19,14,43,22.60
2015,08,19,14,44,22.60
2015,08,19,14,45,22.60
2015,08,19,14,46,22.60
2015,08,19,14,47,22.70
2015,08,19,14,48,22.80
2015,08,19,14,49,22.80
2015,08,19,14,50,22.90
2015,08,19,14,51,23.00
2015,08,19,14,52,23.10
2015,08,19,14,53,23.10
2015,08,19,14,54,23.10
2015,08,19,14,55,23.00
2015,08,19,14,56,23.00
2015,08,19,14,57,23.10
2015,08,19,14,58,23.10
2015,08,19,14,59,23.20
2015,08,19,15,00,23.20
2015,08,19,15,01,23.30
2015,08,19,15,02,23.40
2015,08,19,15,03,23.50
2015,08,19,15,04,23.50
2015,08,19,15,05,23.60
2015,08,19,15,06,23.60
2015,08,19,15,07,23.70
2015,08,19,15,08,23.70
2015,08,19,15,09,23.80
2015,08,19,15,10,23.80
2015,08,19,15,11,23.70
2015,08,19,15,12,23.60
2015,08,19,15,13,23.60
2015,08,19,15,14,23.60
2015,08,19,15,15,23.60
2015,08,19,15,16,23.40
2015,08,19,15,17,23.30
2015,08,19,15,18,23.20
2015,08,19,15,19,23.10
2015,08,19,15,20,23.10
2015,08,19,15,21,23.10
2015,08,19,15,22,23.10
2015,08,19,15,23,23.10
2015,08,19,15,24,23.10
2015,08,19,15,25,23.10
2015,08,19,15,26,23.10
2015,08,19,15,27,23.10
2015,08,19,15,28,23.10
2015,08,19,15,29,23.10
2015,08,19,15,30,23.00
2015,08,19,15,31,23.00
2015,08,19,15,32,23.10
2015,08,19,15,33,23.10
2015,08,19,15,34,23.10
2015,08,19,15,35,23.10
2015,08,19,15,36,23.00
2015,08,19,15,37,23.00
2015,08,19,15,38,23.00
2015,08,19,15,39,23.10
2015,08,19,15,40,23.20
2015,08,19,15,41,23.30
2015,08,19,15,42,23.30
2015,08,19,15,43,23.30
2015,08,19,15,44,23.30
2015,08,19,15,45,23.30
2015,08,19,15,46,23.20
2015,08,19,15,47,23.10
2015,08,19,15,48,22.90
2015,08,19,15,49,22.70
2015,08,19,15,50,22.50
2015,08,19,15,51,22.30
2015,08,19,15,52,22.20
2015,08,19,15,53,22.20
2015,08,19,15,54,22.10
2015,08,19,15,55,22.10
2015,08,19,15,56,22.00
2015,08,19,15,57,22.00
2015,08,19,15,58,21.80
2015,08,19,15,59,21.70
2015,08,19,16,00,21.70
2015,08,19,16,01,21.70
2015,08,19,16,02,21.70
2015,08,19,16,03,21.80
2015,08,19,16,04,21.90
2015,08,19,16,05,21.80
2015,08,19,16,06,21.80
2015,08,19,16,07,21.80
2015,08,19,16,08,21.80
2015,08,19,16,09,21.80
2015,08,19,16,10,21.80
2015,08,19,16,11,21.80
2015,08,19,16,12,21.70
2015,08,19,16,13,21.70
2015,08,19,16,14,21.70
2015,08,19,16,15,21.80
2015,08,19,16,16,21.80
2015,08,19,16,17,21.80
2015,08,19,16,18,21.80
2015,08,19,16,19,21.80
2015,08,19,16,20,21.90
2015,08,19,16,21,22.00
2015,08,19,16,22,22.10
2015,08,19,16,23,22.10
2015,08,19,16,24,22.10
2015,08,19,16,25,22.20
2015,08,19,16,26,22.10
2015,08,19,16,27,22.00
2015,08,19,16,28,21.80
2015,08,19,16,29,21.80
2015,08,19,16,30,21.70
2015,08,19,16,31,21.70
2015,08,19,16,32,21.60
2015,08,19,16,33,21.60
2015,08,19,16,34,21.60
2015,08,19,16,35,21.60
2015,08,19,16,36,21.50
2015,08,19,16,37,21.50
2015,08,19,16,38,21.40
2015,08,19,16,39,21.40
2015,08,19,16,40,21.40
2015,08,19,16,41,21.40
2015,08,19,16,42,21.30
2015,08,19,16,43,21.30
2015,08,19,16,44,21.30
2015,08,19,16,45,21.30
2015,08,19,16,46,21.30
2015,08,19,16,47,21.30
2015,08,19,16,48,21.30
2015,08,19,16,49,21.40
2015,08,19,16,50,21.40
2015,08,19,16,51,21.30
2015,08,19,16,52,21.30
2015,08,19,16,53,21.30
2015,08,19,16,54,21.30
2015,08,19,16,55,21.30
2015,08,19,16,56,21.30
2015,08,19,16,57,21.20
2015,08,19,16,58,21.20
2015,08,19,16,59,21.20
2015,08,19,17,00,21.30
2015,08,19,17,01,21.30
2015,08,19,17,02,21.30
2015,08,19,17,03,21.30
2015,08,19,17,04,21.30
2015,08,19,17,05,21.30
2015,08,19,17,06,21.40
2015,08,19,17,07,21.50
2015,08,19,17,08,21.60
2015,08,19,17,09,21.70
2015,08,19,17,10,21.70
2015,08,19,17,11,21.70
2015,08,19,17,12,21.70
2015,08,19,17,13,21.70
2015,08,19,17,14,21.70
2015,08,19,17,15,21.60
2015,08,19,17,16,21.70
2015,08,19,17,17,21.70
2015,08,19,17,18,21.70
2015,08,19,17,19,21.70
2015,08,19,17,20,21.80
2015,08,19,17,21,21.80
2015,08,19,17,22,21.80
2015,08,19,17,23,21.90
2015,08,19,17,24,21.90
2015,08,19,17,25,21.90
2015,08,19,17,26,22.00
2015,08,19,17,27,22.00
2015,08,19,17,28,22.10
2015,08,19,17,29,22.20
2015,08,19,17,30,22.20
2015,08,19,17,31,22.30
2015,08,19,17,32,22.40
2015,08,19,17,33,22.40
2015,08,19,17,34,22.30
2015,08,19,17,35,22.20
2015,08,19,17,36,22.10
2015,08,19,17,37,22.10
2015,08,19,17,38,22.00
2015,08,19,17,39,22.00
2015,08,19,17,40,22.00
2015,08,19,17,41,22.10
2015,08,19,17,42,22.00
2015,08,19,17,43,21.90
2015,08,19,17,44,21.70
2015,08,19,17,45,21.60
2015,08,19,17,46,21.60
2015,08,19,17,47,21.60
2015,08,19,17,48,21.50
2015,08,19,17,49,21.60
2015,08,19,17,50,21.50
2015,08,19,17,51,21.50
2015,08,19,17,52,21.50
2015,08,19,17,53,21.50
2015,08,19,17,54,21.50
2015,08,19,17,55,21.40
2015,08,19,17,56,21.40
2015,08,19,17,57,21.30
2015,08,19,17,58,21.30
2015,08,19,17,59,21.20
2015,08,19,18,00,21.10
2015,08,19,18,01,21.10
2015,08,19,18,02,21.10
2015,08,19,18,03,21.10
2015,08,19,18,04,21.20
2015,08,19,18,05,21.30
2015,08,19,18,06,21.40
2015,08,19,18,07,21.40
2015,08,19,18,08,21.40
2015,08,19,18,09,21.40
2015,08,19,18,10,21.40
2015,08,19,18,11,21.40
2015,08,19,18,12,21.40
2015,08,19,18,13,21.50